Погода в Рошни-Чу

Россия / Чеченская Республика     43°05′24″N   45°27′13″E
темп.,
°C
ветер,
м/с
пор.,
м/с
влажн.,
%
обл.,
%
осадки,
мм/ч
давл.,
гПа
погр.,
м
5 марта, пт
пт500:00−2ююз22560 0.0 102427
03:00−2ююз22530 0.0 102323
06:00−1ююз12470 0.0 102123
09:00+3ссв11420 0.0 1019202
12:00+6ссв21460 0.0 1018468
15:00+8св11490 0.0 1016440
18:00+3ююв01660 0.0 101922
21:00+2ююз22620 0.0 102123
6 марта, сб
сб600:00+2ююз22490 0.0 102024
03:00+2ююз22410 0.0 102125
06:00+2ююз33430 0.0 102127
09:00+8юз114112 0.0 101979
12:00+12ссв21351 0.0 1017470
15:00+12св21351 0.0 1014518
18:00+8ю225113 0.0 101524
21:00+6ююз434356 0.0 101564
7 марта, вс
вс700:00+5ююз334297 0.0 101453
03:00+4з224899 0.0 101522
06:00+1сз3695100 0.4 1018420
09:00−2ссз3693100 5.5 1021517
12:00−1ссз3580100 1.9 1020746
15:00−1ссз2370100 2.9 1021884
18:00−3св0174100 0.4 102370
21:00−5ююз228173 0.4 102540
8 марта, пн
пн800:00−5ююз11750 0.0 102424
03:00−5ююз11750 0.0 102521
06:00−6ю11750 0.0 102422
09:00−2св12650 0.0 1022514
12:00+1св336130 0.0 1019833
15:00+2св226246 0.0 1017889
18:00−1ссз017459 0.0 101828
21:00−2зюз117871 0.1 101922
9 марта, вт
вт900:00−2ююз117996 0.0 101921
03:00−3ю118291 0.1 101821
06:00−3ю118158 0.0 101821
09:00+1св116949 0.0 1017430
12:00+3св216318 0.0 1015729
15:00+4св216326 0.0 1014759
18:00+1с017997 0.0 101522
21:000юз227068 0.0 101723